Alturas, CA

2:53 PM PDT on August 24, 2016 (GMT -0700)
Alturas Municipal

Weather History for KAAT - August, 2014

Change the Weather History Date:

Tuesday, August 26, 2014

  Actual Average Record
Temperature  
Mean Temperature 64 °F 62 °F  
Max Temperature 86 °F 84 °F 99 °F (1934)
Min Temperature 41 °F 41 °F 29 °F (1908)
Degree Days  
Heating Degree Days 1 4  
Month to date heating degree days 11 49  
Since 1 June heating degree days 106 270  
Since 1 July heating degree days 17 90  
Cooling Degree Days 0 1  
Month to date cooling degree days 84 51  
Year to date cooling degree days 357 146  
Since 1 June cooling degree days 357 146  
Growing Degree Days 13 (Base 50)    
Moisture  
Dew Point 32 °F    
Average Humidity 38    
Maximum Humidity 65    
Minimum Humidity 11    
Precipitation  
Precipitation 0.00 in 0.01 in 0.10 in (1961)
Month to date precipitation 0.46 0.29  
Year to date precipitation 6.28 9.07  
Sea Level Pressure  
Sea Level Pressure 30.02 in    
Wind  
Wind Speed 3 mph (ESE)    
Max Wind Speed 14 mph    
Max Gust Speed 17 mph    
Visibility 10 miles    
Events      
T = Trace of Precipitation, MM = Missing Value Source: NWS Daily Summary

Daily Weather History Graph

Daily Weather History Graph

Search for Another Location

Airport or City:

Trip Planner

Search our weather history database for the weather conditions in past years. The results will help you decide how hot, cold, wet, or windy it might be!

Date:

Astronomy

Aug. 26, 2014 Rise Set
Actual Time 6:22 AM PDT 7:44 PM PDT
Civil Twilight 5:53 AM PDT 8:13 PM PDT
Nautical Twilight 5:18 AM PDT 8:48 PM PDT
Astronomical Twilight 4:42 AM PDT 9:24 PM PDT
Moon 7:29 AM PDT (8/26) 8:07 PM PDT (8/26)
Length of Visible Light 14h 20m
Length of Day
13h 22m
New Moon, 1% of the Moon is Illuminated
Aug 26
New Moon
Sep 2
First Quarter
Sep 8
Full
Sep 15
Last Quarter
Sep 23
New

Hourly Weather History & Observations

Time (PDT) Temp. Dew Point Humidity Pressure Visibility Wind Dir Wind Speed Gust Speed Precip Events Conditions
12:55 AM 53.1 °F 33.1 °F 47% 29.99 in 10.0 mi Calm Calm - N/A   Clear
1:55 AM 57.0 °F 33.1 °F 40% 29.99 in 10.0 mi North 5.8 mph - N/A   Clear
2:55 AM 51.1 °F 35.1 °F 54% 30.01 in 10.0 mi ESE 6.9 mph - N/A   Clear
3:55 AM 45.0 °F 33.1 °F 63% 30.03 in 10.0 mi Calm Calm - N/A   Clear
4:55 AM 45.0 °F 30.0 °F 56% 30.05 in 10.0 mi Calm Calm - N/A   Clear
5:55 AM 43.0 °F 30.9 °F 62% 30.06 in 10.0 mi Calm Calm - N/A   Clear
6:55 AM 42.1 °F 30.0 °F 62% 30.09 in 10.0 mi Calm Calm - N/A   Clear
7:55 AM 53.1 °F 34.0 °F 48% 30.09 in 10.0 mi Calm Calm - N/A   Clear
8:55 AM 60.1 °F 35.1 °F 39% 30.08 in 10.0 mi Calm Calm - N/A   Clear
9:55 AM 66.0 °F 36.0 °F 33% 30.07 in 10.0 mi Calm Calm - N/A   Clear
10:55 AM 72.0 °F 37.0 °F 28% 30.06 in 10.0 mi Calm Calm - N/A   Clear
11:55 AM 79.0 °F 35.1 °F 20% 30.04 in 10.0 mi Variable 3.5 mph - N/A   Clear
12:55 PM 79.0 °F 34.0 °F 20% 30.03 in 10.0 mi SSE 10.4 mph - N/A   Clear
2:55 PM 82.9 °F 30.0 °F 15% 29.99 in 10.0 mi WSW 8.1 mph - N/A   Clear
3:55 PM 84.9 °F 28.9 °F 13% 29.99 in 10.0 mi North - - N/A   Clear
4:55 PM 84.9 °F 25.0 °F 11% 29.97 in 10.0 mi North 6.9 mph - N/A   Clear
5:55 PM 84.0 °F 28.0 °F 13% 29.97 in 10.0 mi Variable 3.5 mph - N/A   Clear
6:55 PM 82.9 °F 30.9 °F 15% 29.97 in 10.0 mi ENE 5.8 mph - N/A   Clear
7:55 PM 73.9 °F 34.0 °F 23% 29.98 in 10.0 mi SW 3.5 mph - N/A   Clear
8:55 PM 70.0 °F 30.9 °F 24% 30.00 in 10.0 mi Calm Calm - N/A   Clear
10:55 PM 62.1 °F 34.0 °F 35% 30.01 in 10.0 mi East 3.5 mph - N/A   Clear
11:55 PM 55.9 °F 36.0 °F 47% 30.02 in 10.0 mi South 4.6 mph - N/A   Clear